Location: Eaton
(41.3139°N, 82.0207°W)
Time: 16:58:54
(UTC+00:00)

Cosmos 1151 Rocket - Pass Details

Date: 17 June 2021
Orbit: 592 x 615 km, 82.5° (Epoch: 02 August)

Event Time Altitude Azimuth Distance (km) Brightness Sun altitude
Rises 08:39:33 0° 350° (N) 2,844 7.0 -11.7°
Reaches altitude 10° 08:41:47 10° 348° (NNW) 1,936 6.1 -11.4°
Maximum altitude 08:46:02 74° 264° (W) 620 2.9 -10.8°
Drops below altitude 10° 08:50:15 10° 180° (S) 1,917 5.2 -10.3°
Enters shadow 08:51:42 - 179° (S) 2,504 5.8 -10.1°
